Temp
80 90 93 92 76 78 74 80 91 90 91 97 97 93 90 95 85 69 95 101 102 91 87 85 80 80 81 80 80 79 79 79 79 79 79 79 79 80 79 80 80 81 81 81 81 81 81 81 82
84 90 94 86 72 69 75 88 88 94 94 96 96 94 92 86 94 93 95 102 104 92 87 86 80 80 80 80 79 79 79 79 79 79 79 79 79 79 79 80 80 81 81 81 81 81 81 81 81
83 91 84 79 74 70 75 90 91 96 96 94 93 97 95 88 94 95 100 103 103 93 90 82 80 80 80 80 79 79 79 79 79 79 79 79 79 79 79 79 80 81 81 82 81 81 81 81 81
89 89 85 73 72 82 83 90 92 92 95 96 95 90 98 98 95 100 102 103 104 97 93 80 79 80 80 80 79 79 79 79 79 79 79 79 79 79 79 79 80 81 81 81 81 81 81 81 80
91 86 74 73 76 83 89 94 91 88 91 93 94 88 91 97 103 103 103 101 102 97 88 83 79 79 80 80 79 79 79 79 79 79 79 79 79 79 79 79 80 81 81 81 81 81 80 80 80
81 84 70 70 77 86 91 94 91 88 90 93 91 88 91 102 101 101 103 101 103 86 87 82 80 79 79 79 79 79 79 79 79 79 79 79 79 79 79 79 80 80 80 81 81 80 80 80 79
78 77 72 75 77 82 89 93 87 86 87 89 94 87 93 97 100 101 103 101 101 90 87 85 83 81 79 79 79 78 78 78 79 78 78 78 78 79 79 79 79 80 80 80 81 81 80 80 80
85 80 73 76 76 79 89 88 89 86 84 95 94 83 84 95 100 101 104 103 101 99 91 87 84 84 83 81 79 79 78 78 78 78 78 78 78 78 79 78 79 79 80 81 81 81 80 80 80
89 72 69 75 78 78 90 84 89 92 85 87 89 89 94 98 100 99 99 100 99 99 93 91 89 87 86 85 81 78 79 78 78 78 78 77 79 79 80 80 79 79 80 81 81 80 79 79 79
79 72 75 83 82 79 83 83 84 83 83 83 86 92 95 96 96 94 94 95 96 92 93 93 91 87 88 90 81 81 82 81 81 81 78 81 82 80 84 82 79 79 80 80 80 79 79 79 84
81 72 80 82 83 83 80 80 85 81 77 83 83 87 92 92 91 92 93 95 97 95 86 94 89 86 89 90 81 83 83 83 81 81 79 80 85 83 85 80 80 78 79 81 81 81 83 85 86
74 79 81 82 83 81 78 82 79 81 81 88 89 90 89 88 89 90 92 94 97 98 89 81 88 86 86 89 83 83 85 84 83 83 80 79 83 81 81 83 82 79 82 81 82 85 86 87 88
76 78 81 82 81 81 82 78 78 79 86 89 90 89 87 86 88 90 92 93 93 90 92 82 81 84 85 84 84 85 83 85 85 84 82 83 82 80 82 82 84 83 85 85 85 84 85 85 87
79 78 78 79 79 80 77 78 79 81 87 86 86 85 86 87 87 88 89 87 86 89 88 90 82 79 83 84 82 84 83 84 85 85 84 83 82 79 82 83 82 82 84 85 85 83 82 82 82
78 71 75 77 79 78 80 72 74 84 86 83 83 85 86 86 88 87 88 86 87 87 87 86 86 84 81 80 84 84 86 88 83 85 83 83 82 81 82 82 81 83 84 86 83 83 82 80 82
72 73 66 78 79 80 77 64 78 85 83 80 81 83 84 85 85 87 88 86 87 88 85 87 88 85 80 79 80 86 86 86 85 83 83 84 82 82 81 81 80 83 83 83 82 81 79 77 78
74 64 67 71 81 78 76 68 77 84 81 79 81 81 83 84 85 84 86 87 85 85 84 84 84 84 81 79 78 83 83 85 85 83 82 81 82 83 79 80 81 82 81 81 80 80 78 75 75
61 61 64 63 72 74 71 70 77 81 81 79 81 82 83 83 85 86 85 86 84 84 81 81 83 82 81 77 76 81 85 85 85 84 82 81 81 82 79 80 81 81 81 80 79 78 78 77 77
66 63 62 67 74 71 69 69 73 77 79 78 79 80 81 82 86 87 85 84 83 82 81 81 79 80 80 77 73 72 72 83 85 85 82 80 81 81 80 81 80 80 79 79 79 78 77 76 77
66 63 63 69 74 70 67 66 72 76 77 78 79 79 80 82 84 85 84 83 81 79 79 79 79 79 79 79 77 73 73 79 86 85 82 81 80 80 81 80 79 79 79 78 77 77 74 75 76
66 63 63 62 67 69 66 63 69 78 80 81 81 82 82 81 81 81 82 82 82 78 78 78 77 78 81 79 77 74 73 73 74 82 80 79 80 81 80 80 80 78 78 76 76 77 76 73 73
60 69 66 63 60 52 67 51 63 72 75 77 79 79 80 81 82 83 82 81 81 80 80 79 79 79 81 79 76 74 70 70 70 78 79 79 80 81 81 80 80 78 78 75 76 77 76 74 71
62 69 65 64 61 60 61 56 63 69 61 73 77 79 80 82 82 82 83 82 84 85 81 79 77 79 80 78 76 74 72 70 72 72 77 75 77 81 82 81 80 78 77 76 76 76 75 74 73
71 67 66 66 64 52 59 50 59 65 64 72 77 78 80 81 82 83 84 84 80 86 85 80 77 77 79 78 76 74 73 72 70 70 77 78 80 80 80 82 79 78 77 76 76 75 75 74 73
69 60 49 48 49 50 62 55 59 66 73 74 74 76 79 81 81 81 81 77 67 75 82 83 78 77 78 76 75 75 75 73 70 70 77 76 78 79 77 78 77 76 77 76 75 74 73 74 72
63 59 49 36 41 47 59 52 62 67 73 77 77 77 78 79 80 80 81 75 67 76 75 81 79 78 78 76 75 75 75 72 69 69 69 79 79 79 77 75 76 76 76 75 74 73 73 72 70
61 55 64 52 54 48 54 62 71 64 60 70 74 75 75 75 70 67 67 73 78 79 76 79 77 77 77 76 75 74 74 73 69 69 69 76 77 78 78 76 75 74 74 74 73 72 71 70 69
64 68 53 54 38 39 50 52 56 62 65 69 68 69 71 73 70 61 58 71 75 77 77 79 79 77 77 77 76 74 74 74 73 68 70 70 74 76 75 74 73 73 72 73 71 71 70 68 68
63 59 60 56 51 40 39 48 66 64 66 66 68 70 71 71 74 74 74 61 60 77 81 78 77 78 77 76 75 74 74 72 72 70 70 74 74 75 74 73 72 72 71 71 69 69 69 68 67
67 61 60 45 45 49 47 47 69 68 69 69 69 71 72 72 72 74 73 72 73 76 77 78 77 77 75 76 76 73 73 73 70 69 70 72 75 73 73 73 73 73 72 71 70 69 70 68 65
MSLP
1009.22 1008.23 1007.45 1006.13 1005.24 1002.82 1000.49 998.72 997.10 995.55 995.20 995.90 996.80 997.26 997.96 997.84 998.56 1001.71 1001.96 1001.85 1001.80 1003.60 1005.04 1006.05 1006.50 1006.75 1007.30 1007.76 1008.38 1008.69 1009.07 1010.00 1010.45 1010.84 1011.05 1011.52 1011.70 1012.01 1012.23 1012.15 1012.07 1012.23 1012.49 1012.55 1012.67 1012.75 1012.74 1012.85 1012.92
1009.16 1007.81 1006.46 1005.23 1003.74 1001.28 999.05 997.19 996.11 995.49 996.03 997.02 997.59 998.20 998.37 999.24 999.80 1001.12 1001.58 1001.62 1001.59 1003.63 1005.04 1005.99 1006.88 1007.18 1007.52 1008.03 1008.52 1009.01 1009.09 1009.89 1010.59 1010.84 1011.10 1011.50 1011.88 1012.14 1012.35 1012.36 1012.37 1012.38 1012.58 1012.76 1012.84 1012.91 1012.82 1012.85 1012.93
1009.21 1007.67 1006.03 1004.01 1002.49 1000.62 998.38 996.46 996.22 995.69 996.49 997.38 997.96 998.58 998.72 999.99 1000.69 1001.33 1001.92 1001.90 1002.20 1003.54 1004.66 1006.08 1007.08 1007.43 1007.77 1008.37 1008.71 1009.05 1009.38 1009.92 1010.45 1010.92 1011.34 1011.73 1012.00 1012.14 1012.40 1012.57 1012.55 1012.57 1012.70 1012.85 1013.03 1013.12 1013.10 1013.05 1013.00
1007.46 1006.41 1005.61 1003.47 1001.28 999.52 998.49 997.10 996.96 997.05 997.46 998.34 998.71 998.80 999.30 1000.34 1000.96 1001.46 1002.00 1002.16 1001.88 1002.83 1004.24 1005.71 1006.85 1007.65 1008.11 1008.51 1008.91 1009.38 1009.80 1010.21 1010.49 1011.06 1011.38 1011.85 1012.20 1012.50 1012.62 1012.75 1012.71 1012.77 1012.79 1012.96 1013.08 1013.16 1013.20 1013.15 1013.08
1006.93 1005.52 1004.14 1002.47 1000.96 999.75 998.26 997.32 997.91 998.29 998.37 998.38 998.88 999.49 999.81 1000.61 1000.88 1001.41 1001.45 1002.39 1002.01 1002.73 1004.62 1005.84 1006.42 1007.64 1008.11 1008.64 1009.11 1009.33 1009.73 1010.40 1010.79 1011.11 1011.37 1011.87 1012.24 1012.57 1012.80 1012.99 1012.93 1012.85 1012.99 1013.10 1013.18 1013.24 1013.28 1013.26 1013.05
1005.96 1005.03 1003.55 1001.85 1000.18 998.94 998.02 997.69 998.31 999.09 999.25 999.09 999.40 1000.10 1000.26 1000.38 1000.79 1001.43 1001.71 1002.24 1002.11 1003.58 1004.94 1006.09 1006.60 1007.48 1008.11 1008.64 1009.14 1009.57 1009.79 1010.28 1010.97 1011.16 1011.33 1011.76 1012.12 1012.51 1012.87 1012.93 1013.18 1013.04 1013.06 1013.21 1013.21 1013.17 1013.14 1013.09 1012.80
1005.53 1004.32 1003.02 1001.67 1000.27 998.73 997.83 998.30 999.02 999.66 1000.07 1000.04 1000.05 999.90 1000.18 1000.81 1001.52 1001.84 1001.65 1002.12 1002.63 1003.64 1004.79 1005.96 1006.59 1007.49 1008.26 1008.52 1008.97 1009.51 1009.74 1010.34 1011.18 1011.46 1011.56 1011.77 1012.11 1012.47 1012.88 1013.08 1013.13 1013.15 1013.09 1013.25 1013.26 1013.17 1013.02 1012.89 1012.55
1004.88 1004.37 1003.12 1001.97 1000.55 999.22 998.92 999.55 1000.22 1000.79 1001.03 1000.97 1001.36 1000.94 1001.12 1001.24 1001.79 1002.02 1001.55 1001.47 1002.15 1002.58 1004.27 1005.44 1006.29 1007.33 1007.99 1008.84 1009.02 1009.46 1009.74 1010.14 1010.87 1011.48 1011.81 1011.86 1012.05 1012.33 1012.77 1013.02 1013.05 1013.08 1013.05 1013.16 1013.19 1013.00 1012.76 1012.54 1012.43
1005.14 1004.63 1003.08 1001.64 1000.82 1000.49 999.51 1000.35 1001.06 1001.70 1002.28 1002.37 1002.41 1002.26 1001.62 1001.47 1001.91 1002.00 1001.71 1001.45 1001.98 1001.87 1003.41 1004.47 1005.66 1006.81 1007.14 1008.26 1009.03 1009.31 1009.90 1010.01 1010.77 1011.42 1011.79 1011.90 1012.00 1012.22 1012.52 1012.68 1012.75 1012.92 1012.94 1012.97 1012.97 1012.67 1012.62 1012.64 1012.55
1004.84 1003.94 1002.57 1001.96 1002.18 1001.81 1001.40 1001.66 1002.04 1002.49 1002.53 1002.68 1002.49 1002.28 1002.17 1001.93 1002.06 1002.07 1001.96 1001.65 1001.69 1002.33 1002.84 1003.59 1004.36 1005.70 1006.46 1006.94 1008.55 1009.28 1009.72 1010.08 1010.30 1010.91 1011.57 1011.57 1011.40 1011.76 1011.99 1012.27 1012.64 1012.84 1012.85 1012.79 1012.54 1012.23 1012.57 1012.69 1012.31
1004.20 1003.87 1003.28 1002.69 1002.89 1003.04 1002.83 1002.91 1003.06 1002.85 1002.68 1002.60 1002.35 1002.29 1002.29 1002.34 1002.34 1002.30 1002.32 1002.15 1001.83 1002.18 1003.08 1003.14 1003.80 1004.64 1005.48 1006.04 1007.58 1008.62 1009.09 1009.63 1010.09 1010.54 1011.02 1011.05 1010.77 1011.17 1011.58 1012.17 1012.29 1012.58 1012.64 1012.49 1012.17 1012.16 1012.23 1012.03 1011.80
1004.37 1004.28 1003.91 1003.26 1003.47 1003.62 1003.60 1003.51 1003.34 1003.09 1002.82 1002.69 1002.43 1002.41 1002.62 1002.80 1002.91 1002.68 1002.47 1002.20 1001.82 1001.29 1002.41 1004.09 1004.78 1005.34 1005.94 1005.58 1006.89 1007.76 1008.31 1008.91 1009.59 1009.81 1010.41 1010.71 1010.45 1010.60 1011.06 1011.33 1011.49 1011.69 1011.55 1011.76 1011.56 1011.66 1011.43 1011.28 1011.41
1004.55 1004.16 1003.87 1003.74 1003.91 1003.88 1003.80 1003.51 1003.25 1002.91 1002.75 1002.54 1002.39 1002.37 1002.55 1002.88 1002.88 1002.82 1002.62 1002.53 1002.15 1002.51 1002.73 1004.48 1004.97 1005.17 1005.81 1005.81 1006.24 1007.26 1007.70 1008.16 1008.65 1009.26 1009.67 1009.93 1010.11 1010.26 1010.44 1010.66 1010.78 1010.83 1010.67 1010.84 1010.95 1011.10 1011.15 1011.34 1011.51
1004.82 1004.53 1004.34 1004.19 1003.87 1003.68 1003.45 1003.29 1003.01 1002.49 1002.14 1002.00 1002.21 1002.41 1002.41 1002.57 1002.60 1002.61 1002.67 1002.94 1002.92 1002.78 1002.93 1003.55 1005.35 1005.90 1006.17 1005.20 1005.91 1006.74 1007.35 1007.46 1007.79 1008.35 1008.96 1009.41 1009.59 1010.04 1010.19 1010.17 1010.28 1010.28 1010.15 1010.28 1010.52 1010.92 1011.19 1011.71 1011.96
1005.16 1004.78 1004.13 1003.14 1002.81 1002.92 1003.22 1003.10 1002.50 1001.64 1001.60 1001.67 1002.03 1002.07 1002.26 1002.39 1002.51 1002.52 1002.70 1002.93 1003.25 1003.29 1003.47 1003.46 1003.92 1004.96 1005.35 1005.22 1005.79 1006.23 1006.78 1007.06 1007.27 1007.64 1008.22 1008.94 1009.19 1009.73 1010.01 1009.95 1010.04 1010.08 1009.99 1010.17 1010.52 1010.96 1011.25 1011.83 1012.23
1004.72 1004.23 1002.97 1001.84 1002.08 1002.31 1002.76 1002.14 1001.92 1001.42 1001.38 1001.82 1002.04 1002.01 1001.99 1002.21 1002.41 1002.62 1002.66 1002.90 1003.12 1003.33 1003.64 1003.69 1003.98 1004.49 1005.26 1005.66 1005.72 1005.92 1006.14 1006.48 1006.79 1006.87 1007.45 1008.21 1008.85 1009.24 1009.71 1010.03 1010.01 1009.72 1010.09 1010.38 1010.71 1010.91 1011.46 1012.09 1012.37
1003.03 1003.04 1002.55 1001.85 1001.75 1001.98 1002.02 1001.61 1001.75 1001.36 1001.27 1001.25 1001.41 1001.64 1001.72 1001.77 1001.92 1002.16 1002.45 1002.68 1003.03 1003.32 1003.73 1003.97 1004.22 1004.46 1005.13 1005.63 1005.82 1005.57 1005.51 1005.83 1006.13 1006.29 1006.91 1007.52 1008.38 1008.88 1009.46 1009.76 1009.72 1009.51 1010.20 1010.53 1010.75 1010.97 1011.61 1012.11 1012.60
1004.44 1004.29 1003.87 1003.29 1002.97 1002.43 1001.93 1001.42 1001.17 1000.92 1000.61 1000.40 1000.47 1000.66 1000.81 1000.86 1001.06 1001.69 1001.93 1002.21 1002.55 1002.97 1003.29 1003.70 1003.99 1004.32 1004.73 1005.28 1005.74 1005.42 1005.17 1005.31 1005.49 1005.75 1006.42 1007.14 1007.81 1008.47 1009.17 1009.47 1009.48 1009.61 1010.15 1010.52 1010.78 1011.13 1011.56 1011.84 1012.40
1005.69 1005.15 1004.36 1003.65 1002.93 1002.28 1001.63 1001.29 1001.06 1000.71 1000.20 999.86 999.97 1000.04 1000.32 1000.45 1000.58 1001.10 1001.53 1001.84 1002.21 1002.55 1002.98 1003.28 1003.65 1003.82 1004.25 1004.88 1005.18 1005.66 1005.60 1005.47 1005.41 1005.26 1005.49 1006.44 1007.17 1007.88 1008.67 1009.07 1009.34 1009.83 1010.20 1010.54 1010.87 1011.19 1011.58 1011.91 1012.16
1005.43 1004.84 1003.98 1003.17 1002.64 1002.61 1002.00 1001.42 1000.88 999.90 999.32 999.19 999.12 999.35 999.77 1000.01 1000.16 1000.59 1001.03 1001.32 1001.73 1002.21 1002.60 1003.00 1003.31 1003.53 1003.71 1004.01 1004.55 1005.51 1005.59 1005.03 1004.01 1005.12 1004.93 1005.26 1006.42 1007.08 1007.86 1008.56 1009.19 1009.84 1010.20 1010.49 1010.80 1011.14 1011.52 1011.99 1012.02
1004.82 1004.47 1004.14 1003.90 1003.64 1003.24 1002.28 1000.78 999.49 998.12 997.70 998.22 998.52 998.68 999.25 999.71 1000.05 1000.47 1000.86 1001.03 1001.35 1001.73 1001.97 1002.34 1002.78 1003.02 1002.91 1003.23 1003.75 1004.82 1004.74 1005.56 1003.35 1004.31 1005.40 1004.88 1005.46 1006.22 1007.16 1008.03 1008.86 1009.55 1010.02 1010.43 1010.72 1011.02 1011.52 1011.91 1012.19
1004.72 1004.84 1004.74 1004.38 1003.95 1003.06 1002.59 1000.59 999.81 998.16 997.28 997.19 997.34 998.02 998.85 999.35 999.74 1000.03 1000.26 1000.60 1000.83 1001.03 1001.23 1001.60 1002.02 1002.37 1002.43 1002.50 1002.82 1003.48 1004.38 1004.93 1004.96 1004.47 1004.51 1005.63 1005.08 1005.50 1006.43 1007.42 1008.52 1009.20 1009.78 1010.26 1010.60 1010.74 1011.43 1011.85 1012.28
1005.42 1005.35 1004.81 1004.02 1003.11 1002.61 1001.76 1000.76 998.47 997.96 998.40 997.59 997.58 997.94 998.38 998.99 999.41 999.77 1000.01 1000.23 1000.24 1000.13 1000.28 1000.76 1001.21 1001.60 1001.70 1002.16 1002.34 1002.48 1002.92 1004.01 1004.46 1003.78 1003.53 1005.15 1005.10 1004.93 1005.95 1006.83 1007.86 1008.92 1009.51 1009.96 1010.48 1010.93 1011.36 1011.62 1011.98
1005.23 1004.60 1004.05 1003.25 1001.96 1001.32 1000.81 1001.58 998.88 997.98 998.92 997.94 997.73 997.78 998.29 998.78 999.23 999.57 999.78 1000.00 1000.18 999.68 999.47 999.92 1000.48 1000.84 1001.22 1001.76 1002.03 1002.17 1002.05 1003.05 1003.40 1004.23 1003.47 1004.52 1004.73 1004.55 1005.43 1006.38 1007.53 1008.49 1009.21 1009.77 1010.27 1010.72 1011.06 1011.68 1011.75
1004.88 1004.92 1004.09 1002.92 1002.05 1001.09 1001.31 1001.51 999.93 999.05 998.37 998.20 997.99 998.22 998.58 998.90 999.01 999.51 999.72 1000.19 1000.78 1000.75 999.66 999.22 999.72 1000.10 1000.52 1001.31 1001.61 1001.76 1001.66 1002.48 1003.46 1004.39 1002.61 1003.36 1004.85 1004.53 1004.97 1005.88 1007.39 1008.33 1009.22 1009.84 1010.36 1010.57 1011.13 1011.61 1011.91
1004.96 1005.40 1005.06 1004.71 1003.89 1002.80 1002.59 1000.49 999.14 999.70 999.73 998.97 998.86 998.82 998.81 999.27 999.57 999.79 999.88 1000.52 1000.57 1001.27 1001.20 999.55 999.28 999.60 1000.01 1000.57 1000.94 1001.15 1001.13 1002.15 1002.41 1001.68 1003.33 1003.23 1004.31 1004.61 1005.30 1005.55 1007.20 1008.19 1009.13 1009.85 1010.18 1010.77 1011.34 1011.75 1012.06
1004.83 1005.28 1005.15 1005.40 1005.11 1003.83 1002.11 1000.21 999.03 1000.11 1000.51 1000.95 999.61 999.49 999.33 999.84 1000.86 1001.11 1002.23 1002.78 1000.46 999.81 1000.01 999.49 999.44 999.26 999.40 999.95 1000.28 1000.65 1000.68 1001.26 1002.49 1003.58 1003.07 1003.16 1003.56 1004.07 1005.28 1005.72 1006.92 1008.15 1009.11 1009.82 1010.20 1010.86 1011.41 1011.85 1012.26
1004.73 1004.71 1004.90 1005.42 1005.32 1003.87 1002.17 1001.26 999.98 1000.11 1000.28 1000.34 1000.49 1000.62 1000.26 1000.58 1001.25 1001.59 1003.20 1002.38 1001.56 1000.42 999.46 999.11 999.04 999.11 999.33 999.59 999.84 1000.15 1000.28 1000.53 1001.52 1002.58 1002.69 1003.26 1003.21 1004.50 1004.90 1005.34 1006.96 1008.26 1009.26 1010.00 1010.03 1010.80 1011.54 1011.91 1012.39
1003.58 1003.83 1004.55 1005.35 1005.98 1005.02 1003.45 1001.38 1000.25 999.90 1000.16 1000.27 1000.38 1000.30 1000.68 1000.93 1001.11 1001.28 1001.88 1001.95 1002.66 1000.66 999.63 999.17 998.74 998.64 998.60 999.05 999.46 999.80 1000.00 1000.38 1000.96 1001.99 1002.78 1002.85 1003.56 1004.45 1005.06 1005.26 1006.94 1008.10 1009.12 1010.11 1010.14 1010.79 1011.48 1012.01 1012.51
1004.03 1003.93 1004.40 1005.13 1005.43 1005.09 1004.26 1000.08 1000.88 1000.63 1000.40 1000.20 1000.20 1000.09 1000.50 1001.16 1001.26 1001.11 1001.53 1001.47 1001.29 1000.26 999.63 998.90 998.41 998.24 997.78 998.09 998.34 998.99 999.62 1000.20 1000.52 1001.80 1002.36 1002.73 1002.33 1004.29 1004.91 1005.55 1007.09 1007.76 1009.29 1009.92 1010.00 1010.70 1011.38 1012.08 1012.59
Wind_Speed
17 14 10 10 7 8 14 17 18 21 3 12 12 10 15 12 13 3 5 2 18 19 16 13 13 15 15 16 16 16 17 13 12 11 11 10 10 9 8 10 11 11 10 10 9 9 8 6 5
12 19 7 7 8 12 13 20 17 17 16 9 6 6 7 17 22 14 12 6 15 19 14 13 11 13 14 15 17 15 18 16 13 12 12 11 9 9 9 9 9 10 10 9 8 7 6 5 5
13 16 8 6 12 15 16 12 13 9 15 4 3 3 8 8 16 8 8 7 10 19 17 16 12 12 14 13 16 16 16 16 15 13 11 10 10 10 9 8 9 9 10 9 7 6 5 4 4
8 6 7 9 17 17 21 15 8 10 9 3 4 7 5 9 7 8 6 8 5 20 19 21 17 13 13 15 15 15 14 14 16 14 13 11 10 8 8 7 8 8 9 9 7 5 4 3 3
8 7 10 13 16 19 21 19 10 6 9 7 7 4 8 13 10 8 4 2 6 18 19 17 22 15 15 15 14 17 16 15 14 15 14 12 10 9 8 7 7 8 8 7 6 5 2 2 4
8 9 12 13 18 20 17 1 3 3 12 8 1 6 9 9 10 7 8 7 6 19 18 15 19 17 15 16 16 15 16 15 14 15 15 14 12 10 8 8 6 7 7 6 6 4 2 1 3
10 11 15 17 17 20 8 6 2 6 7 13 14 8 3 13 11 8 5 10 3 20 19 15 15 15 14 16 17 17 17 16 12 12 14 14 12 10 9 8 7 7 6 5 4 3 3 4 5
9 11 17 16 15 18 5 14 10 5 9 16 14 3 5 10 9 9 10 2 11 14 18 16 14 14 13 12 16 16 17 18 15 13 13 14 13 11 9 8 8 7 6 5 5 5 7 9 8
12 9 12 17 13 19 6 5 2 6 5 14 14 16 17 18 13 9 9 4 8 11 16 17 17 14 14 13 12 15 17 19 16 13 13 12 7 8 11 12 12 9 7 6 7 10 10 8 8
6 10 16 11 10 14 17 12 8 9 10 11 15 13 13 16 13 8 9 11 9 6 17 17 18 16 14 13 13 11 12 9 10 11 11 8 8 8 11 10 10 8 7 8 12 12 8 7 6
10 12 15 18 10 12 15 15 14 14 16 15 14 12 11 12 13 10 10 12 15 13 1 12 14 17 16 13 11 7 7 7 8 11 10 10 8 7 5 5 5 4 8 6 8 7 6 9 5
8 14 15 14 10 13 14 15 17 17 17 17 17 14 12 10 12 13 12 13 16 13 13 6 1 12 11 10 10 9 9 9 8 10 12 8 5 7 5 7 7 7 6 8 6 4 4 4 3
14 15 14 11 13 13 15 17 18 19 18 17 17 15 12 12 12 11 8 11 10 3 4 16 10 4 10 9 10 9 9 10 11 10 12 8 5 6 6 5 8 8 7 6 5 5 4 3 2
15 15 15 17 17 17 14 15 15 18 16 15 11 12 13 12 12 9 4 8 8 4 6 5 11 7 8 6 11 8 7 9 10 10 11 11 5 5 6 4 3 5 4 4 1 4 4 5 6
14 17 17 20 16 11 9 15 18 22 15 5 9 13 11 11 10 10 7 5 5 5 5 7 6 9 10 3 10 8 9 8 7 9 12 11 7 6 5 3 3 3 1 2 5 5 3 5 5
20 16 14 1 8 12 15 16 14 12 2 7 11 12 11 11 10 10 9 6 5 3 5 4 7 10 12 10 6 8 9 7 7 7 9 11 8 7 4 4 5 4 3 2 2 3 6 4 4
15 10 16 17 18 17 13 17 16 17 15 13 12 14 16 15 12 10 9 8 6 6 4 6 10 11 14 14 8 8 9 7 7 5 8 9 8 7 5 4 5 5 3 3 4 2 5 5 3
16 18 18 19 18 19 20 22 18 19 19 19 18 16 15 16 12 11 7 7 8 7 9 8 7 13 13 12 11 10 10 10 9 9 9 10 8 8 6 5 5 5 3 3 3 4 3 4 4
14 16 19 19 19 21 19 18 19 18 19 20 18 15 13 14 12 9 9 9 7 7 7 8 9 10 11 10 12 11 9 12 11 11 15 14 11 10 9 4 5 4 3 5 5 4 4 2 2
16 19 19 19 17 18 20 22 22 22 20 18 16 14 14 13 11 10 10 8 7 8 8 8 8 11 11 10 10 10 12 11 12 11 13 16 14 10 10 5 7 5 3 6 5 5 3 3 4
16 14 16 19 21 19 22 24 23 16 4 11 11 10 9 10 10 9 10 8 6 9 11 11 11 12 12 15 10 11 10 7 6 12 11 14 14 12 11 7 6 8 4 6 6 5 4 3 3
12 16 19 20 18 16 20 17 21 22 15 17 13 9 8 10 10 9 7 7 10 11 12 13 12 14 14 14 12 16 12 11 8 10 12 11 13 14 12 8 8 8 5 6 5 5 3 1 4
16 15 17 23 22 21 21 13 19 7 11 3 4 4 1 4 9 9 8 8 11 13 11 13 12 14 15 12 14 12 14 10 8 14 15 13 11 14 13 11 8 7 5 8 7 5 5 3 1
16 17 21 23 21 16 16 3 15 11 15 14 6 5 6 8 8 9 9 8 12 12 12 14 14 14 12 13 15 17 19 16 12 8 11 12 11 11 13 11 8 7 5 6 6 6 6 3 4
16 15 11 8 11 7 8 10 12 18 18 5 4 6 8 13 9 10 12 5 16 24 14 8 14 15 14 14 15 17 17 16 13 12 12 12 9 9 10 11 9 6 6 5 6 6 5 3 2
15 9 7 7 13 19 22 15 8 10 13 11 7 9 5 8 11 12 11 7 16 21 12 9 10 14 14 13 14 15 16 9 9 8 6 10 10 9 10 12 10 8 7 6 6 4 4 5 4
5 12 6 10 16 17 17 19 10 19 13 15 11 10 8 12 14 13 22 22 14 4 13 11 11 10 15 14 12 13 14 10 11 10 8 8 10 10 13 13 10 8 7 7 7 5 5 6 4
17 16 11 7 7 14 13 22 18 6 17 11 12 11 14 8 10 7 6 18 15 16 7 9 10 9 15 14 11 11 14 11 11 8 17 8 4 10 12 13 13 9 7 7 7 7 6 6 4
14 9 13 5 8 12 17 10 14 23 18 8 10 10 10 13 10 7 6 4 17 21 11 12 11 14 12 14 13 11 13 10 9 10 13 12 11 12 13 16 11 12 8 8 7 7 7 7 5
21 18 13 4 12 11 14 23 20 8 15 13 13 13 13 13 16 14 15 11 13 15 11 13 10 13 11 17 15 14 13 15 13 15 14 9 13 13 13 13 14 13 10 8 10 11 9 7 7
Wind_Direction
294 268 248 264 243 232 254 248 244 277 36 59 43 2 358 333 79 137 60 349 116 123 134 136 130 134 141 141 144 140 136 139 136 136 130 130 133 133 125 123 124 123 123 123 125 116 101 83 56
292 291 245 279 243 246 249 229 250 247 89 63 62 6 303 54 91 114 54 24 116 123 134 136 133 138 139 144 145 145 138 141 144 141 140 139 136 135 134 134 131 128 127 126 124 115 101 77 43
267 268 262 223 231 250 268 318 359 72 83 55 337 128 321 48 54 59 34 80 102 127 143 124 132 138 140 146 145 144 145 145 143 143 140 139 142 141 144 144 135 132 130 129 122 105 82 56 30
244 215 253 260 264 240 239 280 1 337 74 48 322 297 98 82 86 73 77 348 256 137 141 136 133 138 140 141 144 138 143 146 141 144 142 140 142 144 144 149 141 140 138 131 126 107 84 58 4
241 269 247 257 252 262 282 292 70 328 313 317 151 284 336 110 106 58 93 94 276 131 126 139 134 141 142 141 145 145 144 146 147 146 141 142 147 150 148 155 154 147 139 137 127 109 95 47 329
237 228 262 257 253 245 246 212 89 220 287 295 228 179 262 155 103 49 48 74 336 121 132 140 134 139 144 144 146 147 144 143 154 150 145 147 153 156 157 157 167 154 147 146 134 130 153 351 304
246 259 256 269 284 294 323 70 20 11 288 283 350 247 57 53 55 13 342 128 261 132 125 140 140 141 145 146 149 150 143 140 151 150 147 147 151 157 159 167 173 167 152 163 147 169 208 235 236
268 280 273 275 276 272 12 54 33 329 284 323 347 294 236 43 30 342 290 85 154 139 132 141 146 159 155 161 152 152 148 145 148 152 154 150 155 161 167 173 183 179 172 184 190 213 226 229 238
274 263 261 262 320 331 59 43 75 8 313 303 306 301 296 320 326 301 291 191 277 160 148 145 158 166 167 165 162 151 157 148 150 156 163 153 169 175 169 202 167 185 193 202 218 230 233 235 246
236 272 267 18 344 322 332 347 332 297 286 270 274 273 263 278 280 293 294 291 188 135 163 154 164 164 177 160 152 173 171 167 166 171 176 189 187 180 184 160 173 189 201 225 234 235 225 220 223
240 269 306 316 342 324 318 310 299 287 270 260 275 280 298 328 319 303 291 291 290 148 223 174 171 159 176 162 153 177 172 177 182 183 179 215 190 175 176 152 179 195 212 226 225 231 217 207 223
278 284 291 306 312 306 294 294 284 281 282 287 284 288 284 282 279 285 276 271 255 216 143 78 234 157 192 143 156 174 174 183 187 185 180 216 227 159 187 174 190 196 187 214 211 200 178 84 340
285 279 283 312 292 281 277 273 279 277 275 274 273 265 266 271 268 271 278 290 304 95 296 144 195 187 188 149 159 181 183 182 184 185 181 205 204 165 194 196 190 199 195 200 217 152 112 75 181
290 298 303 290 281 275 281 280 279 277 270 258 252 261 266 258 265 259 231 293 329 350 198 227 152 197 265 161 165 184 191 184 184 179 177 207 193 167 210 213 218 186 214 173 108 84 114 64 83
312 293 284 264 245 254 292 279 268 270 253 284 300 279 254 254 266 283 275 222 263 285 297 191 169 187 232 245 177 185 189 185 185 175 168 200 184 179 226 181 222 201 251 291 116 96 92 98 92
259 250 273 19 154 231 219 279 292 285 337 257 254 251 254 267 275 276 277 259 246 213 240 256 203 195 214 235 189 197 182 182 187 172 164 180 186 181 209 204 212 175 160 194 147 143 94 125 109
290 246 307 317 331 316 281 271 271 269 278 251 238 242 260 262 251 239 243 243 230 214 245 245 204 210 203 221 236 207 189 193 184 148 155 166 175 174 186 231 199 146 160 186 123 124 122 125 124
331 314 313 305 303 297 289 281 286 284 274 263 270 268 259 257 248 256 240 244 219 215 201 212 247 206 206 205 216 224 203 195 190 175 163 168 172 174 206 235 148 137 118 131 147 119 120 126 174
304 287 290 290 282 278 283 292 291 289 279 269 269 267 262 265 263 256 240 232 226 212 202 202 219 225 200 202 204 223 217 196 194 183 164 169 176 186 194 189 135 141 177 188 151 120 120 160 154
283 282 282 298 317 321 308 292 282 267 256 259 269 272 269 266 265 250 257 216 205 208 199 212 228 234 206 212 208 198 220 225 191 181 172 168 180 179 177 201 154 171 211 129 127 142 139 207 120
287 300 302 320 313 295 282 272 274 275 257 207 235 260 257 262 283 289 285 283 239 215 213 202 218 231 231 210 212 203 209 216 231 176 178 171 177 173 170 185 165 175 181 147 154 154 197 169 123
310 326 318 303 300 296 305 296 288 271 254 203 226 203 256 295 252 247 248 272 245 245 214 205 212 231 231 206 220 208 200 207 215 220 170 176 179 170 171 173 171 179 181 158 159 147 176 162 152
303 299 285 282 277 280 278 267 277 71 293 57 55 38 305 276 298 285 291 298 282 252 230 200 207 234 222 218 214 219 209 212 181 218 161 170 187 166 170 171 150 166 172 150 157 147 174 158 156
274 292 310 287 272 249 265 228 291 345 356 299 287 273 254 255 283 297 279 296 321 275 243 193 201 222 214 218 215 223 215 203 219 230 169 170 181 162 167 160 139 153 142 142 148 142 143 266 188
314 319 315 313 309 290 2 270 277 286 292 310 303 316 298 306 251 262 280 23 9 317 296 229 198 208 203 216 220 225 226 203 201 203 173 151 176 164 159 142 138 144 139 138 144 132 148 154 114
302 292 304 317 309 306 305 289 310 27 20 345 5 321 275 297 294 294 310 174 160 239 301 325 271 206 197 206 220 227 235 189 186 213 192 159 176 161 149 132 137 137 132 147 131 133 137 131 111
303 295 311 281 285 285 282 283 353 56 22 298 2 347 327 3 10 31 352 294 336 294 327 320 312 278 189 206 212 226 233 179 161 190 159 184 164 147 155 137 131 128 138 146 144 138 135 131 133
240 257 289 269 287 297 306 307 294 31 347 333 359 349 350 1 352 50 306 326 328 315 233 279 286 289 213 209 206 212 221 196 169 226 160 176 143 138 141 127 135 133 141 162 156 139 134 140 130
293 244 247 247 258 289 300 274 320 330 324 337 318 331 317 323 287 295 281 99 321 282 307 304 291 299 208 203 205 202 216 202 171 179 180 183 176 160 159 142 137 146 147 176 143 135 143 138 138
264 269 277 274 271 264 272 279 286 334 314 286 279 277 315 300 309 311 319 311 324 297 279 272 281 289 236 210 190 189 207 198 198 172 208 177 148 159 145 140 152 147 163 182 149 149 148 143 131